TimeCST,TemperatureF,Dew PointF,Humidity,Sea Level PressureIn,VisibilityMPH,Wind Direction,Wind SpeedMPH,Gust SpeedMPH,PrecipitationIn,Events,Conditions,WindDirDegrees,DateUTC
12:51 AM,37.0,30.0,76,30.27,10.0,NNE,4.6,-,N/A,,Clear,30,2012-01-09 06:51:00
1:51 AM,35.1,28.0,76,30.28,10.0,Calm,Calm,-,N/A,,Clear,0,2012-01-09 07:51:00
2:51 AM,32.0,28.9,88,30.30,9.0,Calm,Calm,-,N/A,,Clear,0,2012-01-09 08:51:00
3:51 AM,30.9,27.0,85,30.26,9.0,Calm,Calm,-,N/A,,Clear,0,2012-01-09 09:51:00
4:51 AM,30.0,27.0,88,30.24,9.0,NW,4.6,-,N/A,,Clear,320,2012-01-09 10:51:00
5:51 AM,28.9,25.0,85,30.26,8.0,Calm,Calm,-,N/A,,Clear,0,2012-01-09 11:51:00
6:51 AM,28.9,27.0,92,30.27,7.0,West,3.5,-,N/A,,Partly Cloudy,270,2012-01-09 12:51:00
7:51 AM,30.0,26.1,85,30.27,6.0,Calm,Calm,-,N/A,,Scattered Clouds,0,2012-01-09 13:51:00
8:51 AM,35.1,30.0,82,30.26,7.0,West,4.6,-,N/A,,Scattered Clouds,280,2012-01-09 14:51:00
9:51 AM,39.0,30.9,73,30.27,7.0,West,4.6,-,N/A,,Mostly Cloudy,280,2012-01-09 15:51:00
10:51 AM,43.0,30.0,60,30.25,9.0,West,3.5,-,N/A,,Mostly Cloudy,280,2012-01-09 16:51:00
11:51 AM,46.0,28.9,51,30.22,10.0,WNW,6.9,-,N/A,,Mostly Cloudy,300,2012-01-09 17:51:00
12:51 PM,46.9,28.0,48,30.20,10.0,NW,6.9,-,N/A,,Mostly Cloudy,310,2012-01-09 18:51:00
1:51 PM,50.0,27.0,41,30.18,10.0,West,4.6,-,N/A,,Scattered Clouds,260,2012-01-09 19:51:00
2:51 PM,51.1,24.1,35,30.17,10.0,West,6.9,-,N/A,,Partly Cloudy,260,2012-01-09 20:51:00
3:51 PM,51.1,25.0,36,30.17,10.0,West,6.9,-,N/A,,Partly Cloudy,270,2012-01-09 21:51:00
4:51 PM,48.0,27.0,44,30.18,10.0,WSW,6.9,-,N/A,,Partly Cloudy,240,2012-01-09 22:51:00
5:51 PM,45.0,26.1,48,30.18,10.0,WSW,6.9,-,N/A,,Partly Cloudy,250,2012-01-09 23:51:00
6:51 PM,42.1,25.0,51,30.18,10.0,WSW,4.6,-,N/A,,Clear,240,2012-01-10 00:51:00
7:51 PM,39.9,25.0,55,30.17,10.0,West,3.5,-,N/A,,Clear,270,2012-01-10 01:51:00
8:51 PM,37.9,25.0,60,30.17,10.0,Calm,Calm,-,N/A,,Clear,0,2012-01-10 02:51:00
9:51 PM,35.1,26.1,70,30.16,10.0,WSW,4.6,-,N/A,,Clear,240,2012-01-10 03:51:00
10:51 PM,37.0,25.0,62,30.15,10.0,WSW,3.5,-,N/A,,Clear,240,2012-01-10 04:51:00
11:51 PM,34.0,25.0,70,30.12,10.0,Calm,Calm,-,N/A,,Clear,0,2012-01-10 05:51:00